• In Hungary
  • List of Countries
  • For 7 days
  • Water Temperature
  • Satellite Maps
  • Weather Map
  • News
  • Weather Widgets
  • user-avatar
    Login

    Hourly Weather Kluczniki

    Today, 22 July, Sunday

    Time Temperature Precipitation Wind Pressure Humidity
    00:00 +16°C° 0 mm 1 mps 718 mmHg 82%
    01:00 +16°C° 0 mm 1 mps 717 mmHg 83%
    02:00 +16°C° 0 mm 1 mps 717 mmHg 84%
    03:00 +16°C° 0 mm 1 mps 717 mmHg 84%
    04:00 +16°C° 0 mm 1 mps 717 mmHg 85%
    05:00 +18°C° 0 mm 1 mps 717 mmHg 80%
    06:00 +20°C° 0 mm 1 mps 718 mmHg 74%
    07:00 +22°C° 0 mm 1 mps 718 mmHg 69%
    08:00 +23°C° 0.4 mm 1 mps 718 mmHg 69%
    09:00 +24°C° 0.4 mm 1 mps 718 mmHg 69%
    10:00 +26°C° 0.4 mm 1 mps 718 mmHg 68%
    11:00 +26°C° 1.8 mm 2 mps 717 mmHg 69%
    12:00 +26°C° 1.8 mm 2 mps 717 mmHg 70%
    13:00 +26°C° 1.8 mm 2 mps 717 mmHg 71%
    14:00 +26°C° 1 mm 2 mps 717 mmHg 73%
    15:00 +25°C° 1 mm 2 mps 717 mmHg 74%
    16:00 +25°C° 1 mm 2 mps 717 mmHg 76%
    17:00 +24°C° 0.3 mm 1 mps 717 mmHg 79%
    18:00 +22°C° 0.3 mm 1 mps 717 mmHg 82%
    19:00 +21°C° 0.3 mm 1 mps 716 mmHg 86%
    20:00 +21°C° 0 mm 1 mps 716 mmHg 87%
    21:00 +20°C° 0 mm 1 mps 717 mmHg 88%
    22:00 +19°C° 0 mm 1 mps 717 mmHg 89%
    23:00 +18°C° 0 mm 1 mps 717 mmHg 90%

    Tomorrow, 23 July, Monday

    Time Temperature Precipitation Wind Pressure Humidity
    00:00 +18°C° 0 mm 1 mps 717 mmHg 91%
    01:00 +18°C° 0 mm 1 mps 717 mmHg 92%
    02:00 +16°C° 0 mm 1 mps 717 mmHg 93%
    03:00 +16°C° 0 mm 1 mps 717 mmHg 93%
    04:00 +16°C° 0 mm 1 mps 717 mmHg 94%
    05:00 +18°C° 0 mm 1 mps 717 mmHg 90%
    06:00 +18°C° 0 mm 2 mps 717 mmHg 86%
    07:00 +20°C° 0 mm 2 mps 718 mmHg 83%
    08:00 +21°C° 0.1 mm 2 mps 718 mmHg 75%
    09:00 +24°C° 0.1 mm 3 mps 718 mmHg 66%
    10:00 +25°C° 0.1 mm 4 mps 718 mmHg 58%
    11:00 +26°C° 0.1 mm 4 mps 718 mmHg 58%
    12:00 +26°C° 0.1 mm 4 mps 718 mmHg 57%
    13:00 +26°C° 0.1 mm 4 mps 718 mmHg 57%
    14:00 +26°C° 0.3 mm 4 mps 718 mmHg 60%
    15:00 +26°C° 0.3 mm 4 mps 718 mmHg 63%
    16:00 +25°C° 0.3 mm 4 mps 718 mmHg 66%
    17:00 +23°C° 0.2 mm 4 mps 718 mmHg 71%
    18:00 +21°C° 0.2 mm 3 mps 718 mmHg 77%
    19:00 +20°C° 0.2 mm 3 mps 718 mmHg 83%
    20:00 +19°C° 0 mm 2 mps 718 mmHg 85%
    21:00 +18°C° 0 mm 2 mps 718 mmHg 88%
    22:00 +17°C° 0 mm 2 mps 718 mmHg 90%
    23:00 +17°C° 0.1 mm 2 mps 718 mmHg 91%

    Day after tomorrow, 24 July, Tuesday

    Time Temperature Precipitation Wind Pressure Humidity
    00:00 +16°C° 0.1 mm 2 mps 718 mmHg 92%
    01:00 +16°C° 0.1 mm 2 mps 718 mmHg 94%
    02:00 +16°C° 0 mm 2 mps 718 mmHg 94%
    03:00 +16°C° 0 mm 2 mps 718 mmHg 95%
    04:00 +16°C° 0 mm 2 mps 718 mmHg 96%
    05:00 +17°C° 0.1 mm 2 mps 718 mmHg 93%
    06:00 +18°C° 0.1 mm 3 mps 719 mmHg 91%
    07:00 +19°C° 0.1 mm 3 mps 719 mmHg 89%
    08:00 +20°C° 0.1 mm 3 mps 719 mmHg 83%
    09:00 +21°C° 0.1 mm 4 mps 719 mmHg 78%
    10:00 +22°C° 0.1 mm 4 mps 719 mmHg 72%
    11:00 +23°C° 0.2 mm 4 mps 719 mmHg 69%
    12:00 +23°C° 0.2 mm 4 mps 719 mmHg 67%
    13:00 +25°C° 0.2 mm 4 mps 719 mmHg 64%
    14:00 +25°C° 0.4 mm 4 mps 719 mmHg 66%
    15:00 +25°C° 0.4 mm 4 mps 719 mmHg 67%
    16:00 +25°C° 0.4 mm 4 mps 719 mmHg 69%
    17:00 +22°C° 0.3 mm 3 mps 719 mmHg 74%
    18:00 +21°C° 0.3 mm 2 mps 719 mmHg 79%
    19:00 +20°C° 0.3 mm 2 mps 719 mmHg 84%
    20:00 +19°C° 0 mm 2 mps 719 mmHg 86%
    21:00 +19°C° 0 mm 1 mps 719 mmHg 88%
    22:00 +18°C° 0 mm 1 mps 719 mmHg 90%
    23:00 +18°C° 0 mm 1 mps 719 mmHg 91%

    25 July, Wednesday

    Time Temperature Precipitation Wind Pressure Humidity
    00:00 +16°C° 0 mm 1 mps 719 mmHg 92%
    01:00 +16°C° 0 mm 1 mps 719 mmHg 93%
    02:00 +15°C° 0 mm 1 mps 719 mmHg 93%
    03:00 +15°C° 0 mm 1 mps 719 mmHg 94%
    04:00 +15°C° 0 mm 1 mps 719 mmHg 95%
    05:00 +16°C° 0 mm 1 mps 719 mmHg 91%
    06:00 +18°C° 0 mm 2 mps 719 mmHg 87%
    07:00 +20°C° 0 mm 2 mps 720 mmHg 84%
    08:00 +21°C° 0.1 mm 2 mps 720 mmHg 77%
    09:00 +23°C° 0.1 mm 2 mps 720 mmHg 69%
    10:00 +25°C° 0.1 mm 3 mps 720 mmHg 62%
    11:00 +25°C° 0.2 mm 3 mps 720 mmHg 62%
    12:00 +26°C° 0.2 mm 3 mps 720 mmHg 61%
    13:00 +26°C° 0.2 mm 3 mps 719 mmHg 61%
    14:00 +26°C° 0.4 mm 3 mps 719 mmHg 63%
    15:00 +26°C° 0.4 mm 3 mps 719 mmHg 65%
    16:00 +26°C° 0.4 mm 3 mps 719 mmHg 67%
    17:00 +24°C° 0.1 mm 2 mps 719 mmHg 72%
    18:00 +23°C° 0.1 mm 2 mps 719 mmHg 77%
    19:00 +22°C° 0.1 mm 1 mps 719 mmHg 82%
    20:00 +21°C° 0 mm 1 mps 719 mmHg 85%
    21:00 +20°C° 0 mm 1 mps 719 mmHg 87%
    22:00 +19°C° 0 mm 1 mps 719 mmHg 89%
    23:00 +18°C° 0 mm 1 mps 719 mmHg 91%

    26 July, Thursday

    Time Temperature Precipitation Wind Pressure Humidity
    00:00 +18°C° 0 mm 1 mps 719 mmHg 92%
    01:00 +18°C° 0 mm 1 mps 719 mmHg 93%
    02:00 +18°C° 0 mm 1 mps 719 mmHg 94%
    03:00 +16°C° 0 mm 1 mps 719 mmHg 95%
    04:00 +16°C° 0 mm 1 mps 719 mmHg 95%
    05:00 +19°C° 0 mm 1 mps 720 mmHg 92%
    06:00 +20°C° 0 mm 1 mps 720 mmHg 89%
    07:00 +21°C° 0 mm 2 mps 720 mmHg 86%
    08:00 +23°C° 0.1 mm 2 mps 721 mmHg 81%
    09:00 +24°C° 0.1 mm 2 mps 721 mmHg 76%
    10:00 +25°C° 0.1 mm 3 mps 721 mmHg 71%
    11:00 +26°C° 0 mm 3 mps 721 mmHg 67%
    12:00 +27°C° 0 mm 3 mps 720 mmHg 62%
    13:00 +28°C° 0 mm 3 mps 720 mmHg 58%
    14:00 +28°C° 0.1 mm 3 mps 720 mmHg 58%
    15:00 +27°C° 0.1 mm 3 mps 720 mmHg 58%
    16:00 +27°C° 0.1 mm 3 mps 720 mmHg 58%
    17:00 +26°C° 0 mm 3 mps 720 mmHg 66%
    18:00 +24°C° 0 mm 2 mps 720 mmHg 73%
    19:00 +23°C° 0 mm 1 mps 720 mmHg 80%
    20:00 +22°C° 0 mm 1 mps 720 mmHg 83%
    21:00 +21°C° 0 mm 1 mps 720 mmHg 87%
    22:00 +20°C° 0 mm 1 mps 720 mmHg 90%
    23:00 +19°C° 0 mm 1 mps 720 mmHg 91%

    27 July, Friday

    Time Temperature Precipitation Wind Pressure Humidity
    00:00 +19°C° 0 mm 1 mps 720 mmHg 93%
    01:00 +19°C° 0 mm 1 mps 720 mmHg 94%
    02:00 +18°C° 0 mm 1 mps 720 mmHg 95%
    03:00 +18°C° 0 mm 1 mps 720 mmHg 96%
    04:00 +18°C° 0 mm 1 mps 720 mmHg 96%
    05:00 +19°C° 0 mm 1 mps 720 mmHg 92%
    06:00 +21°C° 0 mm 1 mps 720 mmHg 89%
    07:00 +22°C° 0 mm 1 mps 721 mmHg 85%
    08:00 +23°C° 0 mm 2 mps 721 mmHg 80%
    09:00 +25°C° 0 mm 2 mps 721 mmHg 74%
    10:00 +26°C° 0 mm 2 mps 721 mmHg 69%
    11:00 +27°C° 0.1 mm 2 mps 721 mmHg 66%
    12:00 +27°C° 0.1 mm 2 mps 721 mmHg 64%
    13:00 +28°C° 0.1 mm 2 mps 720 mmHg 61%
    14:00 +28°C° 0.2 mm 2 mps 720 mmHg 63%
    15:00 +28°C° 0.2 mm 2 mps 720 mmHg 66%
    16:00 +27°C° 0.2 mm 2 mps 720 mmHg 68%
    17:00 +26°C° 0.1 mm 2 mps 720 mmHg 74%
    18:00 +25°C° 0.1 mm 1 mps 720 mmHg 80%
    19:00 +24°C° 0.1 mm 1 mps 720 mmHg 86%
    20:00 +23°C° 0 mm 1 mps 720 mmHg 88%
    21:00 +22°C° 0 mm 1 mps 720 mmHg 90%
    22:00 +19°C° 0 mm 0 mps 720 mmHg 92%
    23:00 +19°C° 0 mm 0 mps 720 mmHg 92%
    Show more